User: anonymous   Login
Location: Unspecified
(0.0000°N, 0.0000°E)
Time: 18:59:45
(UTC+00:00)
Language:

KINEIS-5D - Orbit

View from above orbital plane
View from above orbital plane
View from above satellite
View from above satellite

Ground track
Ground track

The orbit is defined by the following mean orbital elements,

1 62082U          26145.59606683 +.00000000 +00000-0 +13224-3 0 00007
2 62082  97.9131 305.0657 0004669   3.1271 356.9965 14.72398014    07
Epoch (UTC): 25 May 2026 14:18:20
Eccentricity: 0.0004669
inclination: 97.9131°
perigee height: 650 km
apogee height: 657 km
right ascension of ascending node: 305.0657°
argument of perigee: 3.1271°
revolutions per day: 14.72398014
mean anomaly at epoch: 356.9965°

The dashed part of the orbit path shows where the satellite is in the earth's shadow,  

DLR